When you browse on this site, cookies collect data to enhance your experience and personalize the content and advertising you see.
Visit our Privacy Policy to learn more. By continuing to use the site, you agree to this use of cookies and data.
  • In Spain
  • List of Countries
  • For 7 days
  • Water Temperature
  • Weather Map
  • Weather Widgets
  • user-avatar
    Login

    Hourly Weather Sana

    Today, 22 November, Friday

    Time Temperature Precipitation Wind Pressure Humidity
    00:00 +14°C° 0 mm 1 mps 579 mmHg 81%
    01:00 +14°C° 0 mm 1 mps 579 mmHg 81%
    02:00 +14°C° 0 mm 1 mps 578 mmHg 81%
    03:00 +14°C° 0 mm 1 mps 578 mmHg 80%
    04:00 +14°C° 0 mm 1 mps 578 mmHg 82%
    05:00 +13°C° 0 mm 1 mps 579 mmHg 85%
    06:00 +13°C° 0 mm 1 mps 579 mmHg 87%
    07:00 +14°C° 0 mm 1 mps 579 mmHg 82%
    08:00 +15°C° 0 mm 1 mps 580 mmHg 76%
    09:00 +16°C° 0 mm 1 mps 581 mmHg 70%
    10:00 +18°C° 0 mm 1 mps 581 mmHg 62%
    11:00 +19°C° 0 mm 2 mps 582 mmHg 55%
    12:00 +21°C° 0 mm 2 mps 582 mmHg 47%
    13:00 +21°C° 0.1 mm 2 mps 582 mmHg 47%
    14:00 +21°C° 0.1 mm 3 mps 581 mmHg 46%
    15:00 +21°C° 0 mm 3 mps 580 mmHg 47%
    16:00 +20°C° 0.3 mm 2 mps 580 mmHg 52%
    17:00 +19°C° 0.3 mm 2 mps 580 mmHg 57%
    18:00 +19°C° 0.3 mm 1 mps 580 mmHg 62%
    19:00 +17°C° 0.1 mm 2 mps 580 mmHg 63%
    20:00 +17°C° 0.1 mm 2 mps 580 mmHg 65%
    21:00 +16°C° 0.1 mm 2 mps 580 mmHg 67%
    22:00 +16°C° 0 mm 2 mps 580 mmHg 69%
    23:00 +15°C° 0 mm 1 mps 580 mmHg 71%

    Tomorrow, 23 November, Saturday

    Time Temperature Precipitation Wind Pressure Humidity
    00:00 +15°C° 0 mm 1 mps 579 mmHg 73%
    01:00 +14°C° 0 mm 1 mps 579 mmHg 74%
    02:00 +14°C° 0 mm 1 mps 579 mmHg 76%
    03:00 +14°C° 0 mm 1 mps 578 mmHg 77%
    04:00 +13°C° 0 mm 1 mps 578 mmHg 79%
    05:00 +13°C° 0 mm 1 mps 579 mmHg 80%
    06:00 +13°C° 0 mm 1 mps 579 mmHg 82%
    07:00 +14°C° 0 mm 1 mps 580 mmHg 74%
    08:00 +16°C° 0 mm 1 mps 580 mmHg 67%
    09:00 +18°C° 0 mm 1 mps 581 mmHg 60%
    10:00 +19°C° 0 mm 1 mps 581 mmHg 54%
    11:00 +21°C° 0 mm 1 mps 582 mmHg 48%
    12:00 +21°C° 0 mm 2 mps 582 mmHg 42%
    13:00 +21°C° 0.1 mm 2 mps 582 mmHg 44%
    14:00 +21°C° 0.1 mm 3 mps 581 mmHg 45%
    15:00 +21°C° 0.1 mm 4 mps 580 mmHg 47%
    16:00 +20°C° 0.3 mm 3 mps 580 mmHg 50%
    17:00 +19°C° 0.3 mm 3 mps 580 mmHg 53%
    18:00 +19°C° 0.3 mm 3 mps 580 mmHg 57%
    19:00 +18°C° 0.1 mm 3 mps 580 mmHg 57%
    20:00 +18°C° 0.1 mm 2 mps 580 mmHg 57%
    21:00 +17°C° 0.1 mm 2 mps 580 mmHg 57%
    22:00 +17°C° 0 mm 2 mps 580 mmHg 58%
    23:00 +17°C° 0 mm 2 mps 580 mmHg 58%

    Day after tomorrow, 24 November, Sunday

    Time Temperature Precipitation Wind Pressure Humidity
    00:00 +16°C° 0 mm 2 mps 580 mmHg 59%
    01:00 +16°C° 0 mm 1 mps 579 mmHg 60%
    02:00 +16°C° 0 mm 1 mps 579 mmHg 62%
    03:00 +15°C° 0 mm 1 mps 579 mmHg 63%
    04:00 +15°C° 0 mm 1 mps 579 mmHg 65%
    05:00 +15°C° 0 mm 1 mps 579 mmHg 67%
    06:00 +14°C° 0 mm 1 mps 579 mmHg 69%
    07:00 +15°C° 0 mm 1 mps 580 mmHg 65%
    08:00 +16°C° 0 mm 1 mps 580 mmHg 61%
    09:00 +18°C° 0 mm 1 mps 581 mmHg 57%
    10:00 +19°C° 0 mm 1 mps 581 mmHg 54%
    11:00 +20°C° 0 mm 2 mps 581 mmHg 50%
    12:00 +21°C° 0 mm 2 mps 582 mmHg 46%
    13:00 +21°C° 0.2 mm 2 mps 581 mmHg 47%
    14:00 +21°C° 0.2 mm 2 mps 581 mmHg 47%
    15:00 +21°C° 0.2 mm 3 mps 580 mmHg 48%
    16:00 +20°C° 0.2 mm 3 mps 580 mmHg 51%
    17:00 +20°C° 0.2 mm 2 mps 580 mmHg 54%
    18:00 +19°C° 0.2 mm 2 mps 580 mmHg 58%
    19:00 +18°C° 0.1 mm 2 mps 580 mmHg 56%
    20:00 +18°C° 0.1 mm 2 mps 580 mmHg 55%
    21:00 +17°C° 0.1 mm 2 mps 580 mmHg 54%
    22:00 +17°C° 0 mm 2 mps 580 mmHg 54%
    23:00 +18°C° 0 mm 1 mps 580 mmHg 54%

    25 November, Monday

    Time Temperature Precipitation Wind Pressure Humidity
    00:00 +18°C° 0 mm 1 mps 580 mmHg 54%
    01:00 +16°C° 0 mm 1 mps 579 mmHg 55%
    02:00 +16°C° 0 mm 1 mps 579 mmHg 57%
    03:00 +16°C° 0 mm 1 mps 579 mmHg 58%
    04:00 +14°C° 0 mm 0 mps 579 mmHg 61%
    05:00 +14°C° 0 mm 0 mps 579 mmHg 64%
    06:00 +13°C° 0 mm 0 mps 579 mmHg 67%
    07:00 +14°C° 0 mm 0 mps 579 mmHg 63%
    08:00 +15°C° 0 mm 0 mps 580 mmHg 60%
    09:00 +18°C° 0 mm 1 mps 581 mmHg 56%
    10:00 +19°C° 0 mm 1 mps 581 mmHg 53%
    11:00 +20°C° 0 mm 1 mps 581 mmHg 51%
    12:00 +21°C° 0 mm 1 mps 581 mmHg 48%
    13:00 +22°C° 0.1 mm 1 mps 581 mmHg 48%
    14:00 +21°C° 0.1 mm 2 mps 580 mmHg 48%
    15:00 +21°C° 0.1 mm 2 mps 580 mmHg 48%
    16:00 +20°C° 0.2 mm 2 mps 580 mmHg 50%
    17:00 +20°C° 0.2 mm 3 mps 580 mmHg 52%
    18:00 +19°C° 0.2 mm 3 mps 580 mmHg 54%
    19:00 +18°C° 0.1 mm 2 mps 580 mmHg 54%
    20:00 +18°C° 0.1 mm 2 mps 580 mmHg 54%
    21:00 +17°C° 0.1 mm 2 mps 580 mmHg 54%
    22:00 +17°C° 0 mm 2 mps 580 mmHg 55%
    23:00 +17°C° 0 mm 2 mps 580 mmHg 56%

    26 November, Tuesday

    Time Temperature Precipitation Wind Pressure Humidity
    00:00 +16°C° 0 mm 2 mps 580 mmHg 57%
    01:00 +16°C° 0 mm 2 mps 579 mmHg 59%
    02:00 +16°C° 0 mm 1 mps 579 mmHg 61%
    03:00 +15°C° 0 mm 1 mps 579 mmHg 62%
    04:00 +15°C° 0 mm 1 mps 579 mmHg 65%
    05:00 +14°C° 0 mm 1 mps 579 mmHg 67%
    06:00 +14°C° 0 mm 2 mps 579 mmHg 70%
    07:00 +15°C° 0 mm 1 mps 580 mmHg 65%
    08:00 +16°C° 0 mm 1 mps 580 mmHg 61%
    09:00 +18°C° 0 mm 1 mps 581 mmHg 57%
    10:00 +18°C° 0 mm 2 mps 581 mmHg 52%
    11:00 +19°C° 0 mm 2 mps 581 mmHg 48%
    12:00 +20°C° 0 mm 2 mps 581 mmHg 43%
    13:00 +20°C° 0 mm 2 mps 581 mmHg 44%
    14:00 +20°C° 0 mm 3 mps 581 mmHg 44%
    15:00 +20°C° 0 mm 3 mps 580 mmHg 44%
    16:00 +19°C° 0.1 mm 4 mps 580 mmHg 46%
    17:00 +19°C° 0.1 mm 4 mps 580 mmHg 48%
    18:00 +17°C° 0.1 mm 5 mps 580 mmHg 50%
    19:00 +18°C° 0 mm 4 mps 580 mmHg 53%
    20:00 +17°C° 0 mm 4 mps 580 mmHg 57%
    21:00 +15°C° 0 mm 4 mps 580 mmHg 60%
    22:00 +16°C° 0 mm 3 mps 580 mmHg 64%
    23:00 +14°C° 0 mm 3 mps 579 mmHg 68%

    27 November, Wednesday

    Time Temperature Precipitation Wind Pressure Humidity
    00:00 +14°C° 0 mm 3 mps 579 mmHg 72%
    01:00 +13°C° 0.1 mm 3 mps 579 mmHg 75%
    02:00 +14°C° 0.1 mm 2 mps 579 mmHg 78%
    03:00 +14°C° 0.1 mm 2 mps 579 mmHg 81%
    04:00 +13°C° 0 mm 2 mps 579 mmHg 82%
    05:00 +13°C° 0 mm 2 mps 579 mmHg 83%
    06:00 +12°C° 0 mm 1 mps 579 mmHg 85%
    07:00 +13°C° 0 mm 1 mps 579 mmHg 77%
    08:00 +14°C° 0 mm 1 mps 580 mmHg 70%
    09:00 +15°C° 0 mm 1 mps 581 mmHg 62%
    10:00 +16°C° 0 mm 1 mps 581 mmHg 56%
    11:00 +19°C° 0 mm 1 mps 581 mmHg 49%
    12:00 +20°C° 0 mm 1 mps 581 mmHg 43%
    13:00 +20°C° 0 mm 2 mps 581 mmHg 40%
    14:00 +20°C° 0 mm 2 mps 581 mmHg 37%
    15:00 +21°C° 0 mm 3 mps 581 mmHg 34%
    16:00 +20°C° 0 mm 3 mps 580 mmHg 38%
    17:00 +19°C° 0 mm 4 mps 580 mmHg 42%
    18:00 +16°C° 0 mm 5 mps 580 mmHg 46%
    19:00 +17°C° 0 mm 4 mps 580 mmHg 47%
    20:00 +15°C° 0 mm 4 mps 580 mmHg 49%
    21:00 +14°C° 0 mm 3 mps 579 mmHg 50%
    22:00 +14°C° 0 mm 3 mps 579 mmHg 52%
    23:00 +14°C° 0 mm 2 mps 579 mmHg 55%
    Show more